AirNav   Everest Fuels
 
 729 users online  

5Y4 Lost Creek Airport
Luzerne, Michigan, USA

GOING TO LUZERNE?


FAA INFORMATION EFFECTIVE 08 OCTOBER 2020

Location

FAA Identifier: 5Y4
Lat/Long: 44-39-36.0530N 084-14-15.0430W
44-39.600883N 084-14.250717W
44.6600147,-84.2375119
(estimated)
Elevation: 1051 ft. / 320.3 m (surveyed)
Variation: 06W (1985)
From city: 3 miles NE of LUZERNE, MI
Time zone: UTC -4 (UTC -5 during Standard Time)
Zip code: 48636

Airport Operations

Airport use: Open to the public
Activation date: 08/1946
Control tower: no
ARTCC: MINNEAPOLIS CENTER
FSS: LANSING FLIGHT SERVICE STATION
NOTAMs facility: LAN (NOTAM-D service available)
Attendance: UNATNDD
Wind indicator: yes
Segmented circle: no

Airport Communications

CTAF: 122.9

Nearby radio navigation aids

VOR radial/distance  VOR name  Freq  Var
CGGr100/(21.0)GRAYLING VOR109.8006W
GLRr143/29.0GAYLORD VOR/DME109.2006W
APNr236/38.5ALPENA VORTAC108.8007W

 
NDB name  Hdg/Dist  Freq  Var  ID
GRAYLING108/25.835906WGYG --. -.-- --.

Airport Services

Parking: tiedowns

Runway Information

Runway 18/36

Dimensions: 2600 x 100 ft. / 792 x 30 m
Surface: turf, in good condition
RUNWAY 18  RUNWAY 36
Latitude: 44-39.794667N44-39.366667N
Longitude: 084-14.208333W084-14.208333W
Elevation: 1051.0 ft.1051.0 ft.
Traffic pattern: leftleft
Displaced threshold: 440 ft.715 ft.
Runway end identifier lights: nono
Obstructions: 45 ft. trees, 180 ft. from runway, 4:1 slope to clear
APCH RATIO 14:1 AT DSPLCD THLD.
60 ft. trees, 120 ft. right of centerline
APCH RATIO 20:1 BASED ON STRAIGHT OUT OVR 60 FT TREES, 1220 FT DSTC, 0 FT B.

Runway 5/23

Dimensions: 2200 x 100 ft. / 671 x 30 m
Surface: turf, in good condition
Runway edge markings: RYS 05/23, 18/36, & DSPLCD THLDS MKD WITH 3 FT YELLOW CONES.
RUNWAY 5  RUNWAY 23
Latitude: 44-39.482667N44-39.775000N
Longitude: 084-14.408333W084-14.108333W
Elevation: 1051.0 ft.1051.0 ft.
Traffic pattern: leftleft
Displaced threshold: 200 ft.415 ft.
Runway end identifier lights: nono
Obstructions: 55 ft. trees, 770 ft. from runway, 115 ft. right of centerline, 14:1 slope to clear
APCH RATIO 20:1; FM DSPLCD THLD.
40 ft. trees, 30 ft. from runway, 126 ft. left of centerline
APCH RATIO 12:1 AT DSPLCD THLD OVR 47 FT TREE, 578 FT DSTC, 130 FT L. APCH RATIO 20:1 BASED ON STRAIGHT OUT.

Airport Ownership and Management from official FAA records

Ownership: Publicly-owned
Owner: US DEPT OF AGRICULTURE
107 MCKINLEY RD
MIO, MI 48647
Phone 989-826-3252
Manager: CLIFF OLSON
3605 OAKVILLE WALTZ RD
NEW BOSTON, MI 48164-9669
Phone 734-775-1953

Airport Operational Statistics

Aircraft based on the field: 1
Single engine airplanes: 1
    
Aircraft operations: 150/year *
67% transient general aviation
33% local general aviation
* for 12-month period ending 31 December 2015

Additional Remarks

ARPT CLSD NOV 14-APR 15 AND WHEN SNOW COVERED.
DEER ON & INVOF ARPT.
RC MODEL ACFT OPER S END OF RY 5/23.
RESTAURANT, LODGE, & CAMPING ADJACENT 989-826-9901.
FOR CD CTC MINNEAPOLIS ARTCC AT 651-463-5588.

Instrument Procedures

There are no published instrument procedures at 5Y4.

Some nearby airports with instrument procedures:

KGOV - Grayling Army Airfield (21 nm W)
Y31 - West Branch Community Airport (25 nm S)
KHTL - Roscommon County - Blodgett Memorial Airport (26 nm SW)
KGLR - Gaylord Regional Airport (29 nm NW)
KOSC - Oscoda-Wurtsmith Airport (38 nm E)
 
Loc | Ops | Rwys | IFR | FBO | Links
Com | Nav | Svcs | Stats | Notes
Area around 5Y4 (Lost Creek Airport)
 
Road maps at: MapQuest Bing Google
 
Aerial photo
WARNING: Photo may not be current or correct
Aerial photo of 5Y4 (Lost Creek Airport)
Do you have a better or more recent aerial photo of Lost Creek Airport that you would like to share? If so, please send us your photo.

 
Sectional chart

 
Airport distance calculator
Flying to Lost Creek Airport? Find the distance to fly.

From to 5Y4

Sunrise and sunset
Times for 29-Oct-2020
 Local
(UTC-4)
 Zulu
(UTC)
Morning civil twilight07:4311:43
Sunrise08:1312:13
Sunset18:2822:28
Evening civil twilight18:5922:59

Current date and time
Zulu (UTC)  29-Oct-2020 12:10:42
Local (UTC-4)  29-Oct-2020 08:10:42
 
METAR
KGOV 
21nm W 
291158Z AUTO 04008KT 10SM OVC013 03/02 A2989 RMK AO2 SLP136 60000 T00320018 10051 20032 53002 $
KY31 
25nm S 
291155Z AUTO 34005KT 10SM BKN016 BKN021 OVC028 05/02 A2987 RMK AO2 T00470024 10055 20000
KHTL 
26nm SW 
291153Z AUTO 02008KT 10SM OVC014 04/01 A2990 RMK AO2 SLP132 T00390006 10050 20006 53010
KGLR 
29nm NW 
291153Z AUTO VRB05KT 10SM FEW008 BKN046 02/01 A2990 RMK AO2 SLP135 T00170006 10050 20017 55001
KAPN 
38nm NE 
291154Z AUTO 33008KT 10SM -RA SCT019 SCT034 OVC050 04/03 A2990 RMK AO2 RAB50 SLP132 P0000 60000 T00440028 10056 20044 56002
KOSC 
38nm E 
291155Z AUTO 34008KT 10SM BKN015 OVC021 05/03 A2988 RMK AO2 T00520032 10062 20052
TAF
KAPN 
38nm NE 
291129Z 2912/3012 01009KT P6SM VCSH BKN016 FM291700 04010G18KT P6SM OVC017 FM292000 03009KT P6SM OVC023
NOTAMs
Click for the latest NOTAMs
NOTAMs are issued by the DoD/FAA and will open in a separate window not controlled by AirNav.

 

 
 

Would you like to see your business listed on this page?

 If your business provides an interesting product or service to pilots, flight crews, aircraft, or users of the Lost Creek Airport, you should consider listing it here.  To start the listing process, click on the button below
 
Add a business
 

Other Pages about Lost Creek Airport

Page from the Michigan Airport Directory (PDF)
 
Update a link
 
Copyright © AirNav, LLC. All rights reserved. Privacy Policy  Contact